| time (UTC) | temp F | wind direction | speed MPH | gust MPH | rain 1hr in | rain 24hr in | rain mn in | humidity % | barometer mb |
| 20260506013100 | 78 | 145 | 0.0 | 5.0 | 0.00 | 0.00 | 0.00 | 76 | 1006.4 |
| 20260506011620 | 79 | 186 | 1.0 | 4.0 | 0.00 | 0.00 | 0.00 | 75 | 1006.4 |
| 20260506010153 | 79 | 175 | 1.0 | 3.0 | 0.00 | 0.00 | 0.00 | 74 | 1006.5 |
| 20260506004550 | 80 | 156 | 0.0 | 2.0 | 0.00 | 0.00 | 0.00 | 73 | 1006.6 |
| 20260506003050 | 80 | 212 | 1.0 | 6.0 | 0.00 | 0.00 | 0.00 | 71 | 1006.6 |
| 20260506001549 | 81 | 118 | 1.0 | 7.0 | 0.00 | 0.00 | 0.00 | 71 | 1006.5 |
| 20260506000150 | 81 | 166 | 0.0 | 2.0 | 0.00 | 0.00 | 0.00 | 70 | 1006.6 |
| 20260505234548 | 81 | 199 | 2.0 | 9.0 | 0.00 | 0.00 | 0.00 | 69 | 1006.2 |
| 20260505233048 | 82 | 175 | 1.0 | 8.0 | 0.00 | 0.00 | 0.00 | 68 | 1006.2 |
| 20260505231547 | 82 | 211 | 2.0 | 7.0 | 0.00 | 0.00 | 0.00 | 68 | 1006.1 |
| 20260505230146 | 82 | 194 | 2.0 | 6.0 | 0.00 | 0.00 | 0.00 | 67 | 1006.1 |
| 20260505224544 | 83 | 107 | 2.0 | 9.0 | 0.00 | 0.00 | 0.00 | 66 | 1006.1 |
| 20260505223045 | 83 | 146 | 3.0 | 9.0 | 0.00 | 0.00 | 0.00 | 65 | 1006.0 |
| 20260505221551 | 83 | 215 | 4.0 | 15.0 | 0.00 | 0.00 | 0.00 | 64 | 1005.8 |
| 20260505220142 | 83 | 116 | 2.0 | 10.0 | 0.00 | 0.00 | 0.00 | 65 | 1005.9 |
| 20260505214552 | 84 | 136 | 2.0 | 8.0 | 0.00 | 0.00 | 0.00 | 63 | 1006.3 |
| 20260505213045 | 84 | 192 | 2.0 | 14.0 | 0.00 | 0.00 | 0.00 | 64 | 1006.2 |
| 20260505211543 | 84 | 157 | 2.0 | 10.0 | 0.00 | 0.00 | 0.00 | 64 | 1006.5 |
| 20260505210139 | 84 | 181 | 2.0 | 12.0 | 0.00 | 0.00 | 0.00 | 65 | 1006.6 |
| 20260505204554 | 84 | 112 | 3.0 | 16.0 | 0.00 | 0.00 | 0.00 | 65 | 1006.7 |
| 20260505203040 | 83 | 192 | 3.0 | 14.0 | 0.00 | 0.00 | 0.00 | 68 | 1007.2 |
| 20260505201543 | 83 | 225 | 3.0 | 14.0 | 0.00 | 0.00 | 0.00 | 67 | 1007.4 |
| 20260505200137 | 81 | 188 | 4.0 | 12.0 | 0.00 | 0.00 | 0.00 | 69 | 1007.7 |
| 20260505194545 | 81 | 126 | 3.0 | 9.0 | 0.00 | 0.00 | 0.00 | 69 | 1007.9 |
| 20260505193043 | 82 | 172 | 2.0 | 9.0 | 0.00 | 0.00 | 0.00 | 68 | 1008.0 |
| 20260505191539 | 81 | 129 | 2.0 | 9.0 | 0.00 | 0.00 | 0.00 | 70 | 1007.9 |
| 20260505190004 | 80 | 159 | 2.0 | 9.0 | 0.00 | 0.00 | 0.00 | 72 | 1008.0 |
| 20260505184501 | 80 | 189 | 3.0 | 7.0 | 0.00 | 0.00 | 0.00 | 73 | 1008.1 |
| 20260505183101 | 79 | 116 | 2.0 | 7.0 | 0.00 | 0.00 | 0.00 | 73 | 1008.3 |
| 20260505181557 | 78 | 166 | 2.0 | 10.0 | 0.00 | 0.00 | 0.00 | 74 | 1008.5 |
| 20260505180003 | 77 | 290 | 4.0 | 9.0 | 0.00 | 0.00 | 0.00 | 75 | 1008.6 |
| 20260505174559 | 76 | 240 | 2.0 | 9.0 | 0.00 | 0.00 | 0.00 | 77 | 1008.8 |
| 20260505173056 | 75 | 205 | 3.0 | 10.0 | 0.00 | 0.00 | 0.00 | 77 | 1009.0 |
| 20260505171553 | 74 | 185 | 3.0 | 9.0 | 0.00 | 0.00 | 0.00 | 80 | 1009.1 |
| 20260505170148 | 74 | 146 | 2.0 | 9.0 | 0.00 | 0.00 | 0.00 | 80 | 1009.3 |
| 20260505164600 | 73 | 208 | 2.0 | 7.0 | 0.00 | 0.00 | 0.00 | 82 | 1009.2 |
| 20260505163052 | 72 | 212 | 2.0 | 7.0 | 0.00 | 0.00 | 0.00 | 82 | 1009.2 |
| 20260505161555 | 71 | 171 | 1.0 | 8.0 | 0.00 | 0.00 | 0.00 | 84 | 1009.2 |
| 20260505160146 | 71 | 201 | 2.0 | 8.0 | 0.00 | 0.00 | 0.00 | 84 | 1009.3 |
| 20260505153104 | 70 | 192 | 2.0 | 8.0 | 0.00 | 0.00 | 0.00 | 85 | 1009.2 |
| 20260505151546 | 70 | 219 | 2.0 | 8.0 | 0.00 | 0.00 | 0.00 | 85 | 1009.1 |
| 20260505150144 | 70 | 190 | 3.0 | 12.0 | 0.00 | 0.00 | 0.00 | 85 | 1008.9 |
| 20260505140143 | 70 | 207 | 1.0 | 9.0 | 0.00 | 0.00 | 0.00 | 86 | 1008.7 |
| 20260505130138 | 69 | 195 | 2.0 | 10.0 | 0.00 | 0.00 | 0.00 | 86 | 1008.1 |
| 20260505124546 | 69 | 233 | 3.0 | 11.0 | 0.00 | 0.00 | 0.00 | 86 | 1007.9 |
| 20260505123036 | 69 | 194 | 1.0 | 15.0 | 0.00 | 0.00 | 0.00 | 86 | 1007.8 |
| 20260505121536 | 69 | 223 | 2.0 | 8.0 | 0.00 | 0.00 | 0.00 | 86 | 1007.5 |
| 20260505120136 | 69 | 193 | 2.0 | 10.0 | 0.00 | 0.00 | 0.00 | 85 | 1007.4 |
| 20260505114555 | 69 | 198 | 4.0 | 10.0 | 0.00 | 0.00 | 0.00 | 85 | 1007.2 |
| 20260505113112 | 69 | 198 | 1.0 | 10.0 | 0.00 | 0.00 | 0.00 | 85 | 1007.3 |
| 20260505111554 | 69 | 170 | 2.0 | 10.0 | 0.00 | 0.00 | 0.00 | 85 | 1007.2 |
| 20260505110154 | 69 | 225 | 4.0 | 11.0 | 0.00 | 0.00 | 0.00 | 85 | 1007.6 |
| 20260505101551 | 69 | 230 | 3.0 | 19.0 | 0.00 | 0.00 | 0.00 | 84 | 1007.7 |
| 20260505100150 | 69 | 165 | 4.0 | 10.0 | 0.00 | 0.00 | 0.00 | 84 | 1007.5 |
| 20260505094549 | 69 | 108 | 2.0 | 10.0 | 0.00 | 0.00 | 0.00 | 83 | 1007.5 |
| 20260505093051 | 69 | 192 | 2.0 | 15.0 | 0.00 | 0.00 | 0.00 | 83 | 1007.8 |
| 20260505091547 | 69 | 211 | 1.0 | 11.0 | 0.00 | 0.00 | 0.00 | 83 | 1007.6 |
| 20260505090145 | 69 | 220 | 1.0 | 11.0 | 0.00 | 0.00 | 0.00 | 83 | 1007.9 |
| 20260505084552 | 69 | 219 | 2.0 | 11.0 | 0.00 | 0.00 | 0.00 | 83 | 1007.7 |
| 20260505083051 | 69 | 136 | 2.0 | 13.0 | 0.00 | 0.00 | 0.00 | 84 | 1007.9 |
| 20260505081551 | 69 | 138 | 3.0 | 14.0 | 0.00 | 0.00 | 0.00 | 83 | 1008.2 |
| 20260505080145 | 69 | 207 | 3.0 | 11.0 | 0.00 | 0.00 | 0.00 | 83 | 1008.3 |
| 20260505074544 | 69 | 184 | 3.0 | 12.0 | 0.00 | 0.00 | 0.00 | 82 | 1008.6 |
| 20260505073043 | 69 | 159 | 2.0 | 12.0 | 0.00 | 0.00 | 0.00 | 82 | 1008.6 |
| 20260505071541 | 69 | 234 | 4.0 | 11.0 | 0.00 | 0.00 | 0.00 | 82 | 1008.8 |
| 20260505070139 | 69 | 132 | 4.0 | 13.0 | 0.00 | 0.00 | 0.00 | 82 | 1009.0 |
| 20260505064548 | 69 | 171 | 5.0 | 20.0 | 0.00 | 0.00 | 0.00 | 82 | 1009.1 |
| 20260505063041 | 69 | 167 | 3.0 | 15.0 | 0.00 | 0.00 | 0.00 | 81 | 1009.4 |
| 20260505061539 | 70 | 207 | 3.0 | 12.0 | 0.00 | 0.00 | 0.00 | 81 | 1009.3 |
| 20260505060137 | 70 | 178 | 2.0 | 12.0 | 0.00 | 0.00 | 0.00 | 81 | 1009.4 |
| 20260505054532 | 70 | 136 | 5.0 | 19.0 | 0.00 | 0.00 | 0.00 | 81 | 1009.4 |
| 20260505053059 | 70 | 175 | 2.0 | 12.0 | 0.00 | 0.00 | 0.00 | 80 | 1009.4 |
| 20260505051533 | 70 | 205 | 2.0 | 11.0 | 0.00 | 0.00 | 0.00 | 80 | 1009.4 |
| 20260505050132 | 70 | 171 | 3.0 | 12.0 | 0.00 | 0.00 | 0.00 | 80 | 1009.3 |
| 20260505041550 | 71 | 207 | 4.0 | 14.0 | 0.00 | 0.00 | 0.00 | 79 | 1009.2 |
| 20260505040150 | 71 | 180 | 4.0 | 12.0 | 0.00 | 0.00 | 0.00 | 78 | 1009.4 |
| 20260505034611 | 72 | 186 | 3.0 | 11.0 | 0.00 | 0.00 | 0.00 | 77 | 1009.4 |
| 20260505033053 | 72 | 123 | 2.0 | 10.0 | 0.00 | 0.00 | 0.00 | 77 | 1009.3 |
| 20260505031547 | 72 | 121 | 2.0 | 10.0 | 0.00 | 0.00 | 0.00 | 76 | 1009.2 |
| 20260505030152 | 73 | 184 | 2.0 | 18.0 | 0.00 | 0.00 | 0.00 | 75 | 1009.4 |
| 20260505024547 | 73 | 163 | 2.0 | 9.0 | 0.00 | 0.00 | 0.00 | 74 | 1009.2 |
| 20260505023048 | 73 | 195 | 1.0 | 9.0 | 0.00 | 0.00 | 0.00 | 74 | 1009.2 |
| 20260505021545 | 74 | 213 | 0.0 | 9.0 | 0.00 | 0.00 | 0.00 | 72 | 1009.2 |
| 20260505020144 | 74 | 169 | 2.0 | 6.0 | 0.00 | 0.00 | 0.00 | 71 | 1009.1 |
| 20260505014548 | 75 | 202 | 2.0 | 9.0 | 0.00 | 0.00 | 0.00 | 69 | 1009.1 |